Time,TemperatureF,DewpointF,PressureIn,WindDirection,WindDirectionDegrees,WindSpeedMPH,WindSpeedGustMPH,Humidity,HourlyPrecipIn,Conditions,Clouds,dailyrainin,SoftwareType,DateUTC
2013-04-23 00:02:00,45.0,41.0,30.02,NW,317,6.0,15.0,87,0.00,,,0.13,,2013-04-23 05:02:00,
2013-04-23 00:12:00,45.0,41.0,30.02,NW,317,6.0,15.0,87,0.00,,,0.13,,2013-04-23 05:12:00,
2013-04-23 00:22:00,44.0,40.0,30.01,NNW,348,3.0,15.0,87,0.00,,,0.13,,2013-04-23 05:22:00,
2013-04-23 00:32:00,42.0,39.0,30.00,NW,318,4.0,10.0,88,0.00,,,0.13,,2013-04-23 05:32:00,
2013-04-23 00:42:00,42.0,39.0,30.00,NW,318,4.0,10.0,88,0.00,,,0.13,,2013-04-23 05:42:00,
2013-04-23 00:52:00,40.0,36.0,30.02,NW,305,8.0,14.0,86,0.00,,,0.13,,2013-04-23 05:52:00,
2013-04-23 01:01:00,40.0,36.0,30.03,NW,305,11.0,18.0,87,0.00,,,0.13,,2013-04-23 06:01:00,
2013-04-23 01:12:00,40.0,36.0,30.03,NW,305,11.0,18.0,87,0.00,,,0.13,,2013-04-23 06:12:00,
2013-04-23 01:21:00,39.0,36.0,30.03,NW,307,6.0,14.0,88,0.00,,,0.13,,2013-04-23 06:21:00,
2013-04-23 01:33:00,39.0,36.0,30.03,NW,307,6.0,14.0,88,0.00,,,0.13,,2013-04-23 06:33:00,
2013-04-23 01:42:00,39.0,36.0,30.03,NW,307,6.0,14.0,88,0.00,,,0.13,,2013-04-23 06:42:00,
2013-04-23 01:52:00,39.0,35.0,30.06,NW,324,6.0,17.0,87,0.00,,,0.13,,2013-04-23 06:52:00,
2013-04-23 02:02:00,38.0,34.0,30.07,NNW,344,6.0,15.0,86,0.00,,,0.13,,2013-04-23 07:02:00,
2013-04-23 02:11:00,38.0,34.0,30.07,NNW,344,6.0,15.0,86,0.00,,,0.13,,2013-04-23 07:11:00,
2013-04-23 02:21:00,38.0,34.0,30.07,NNW,345,5.0,13.0,86,0.00,,,0.13,,2013-04-23 07:21:00,
2013-04-23 02:32:00,38.0,34.0,30.05,NNW,336,5.0,11.0,86,0.00,,,0.13,,2013-04-23 07:32:00,
2013-04-23 02:42:00,38.0,34.0,30.05,NNW,336,5.0,11.0,86,0.00,,,0.13,,2013-04-23 07:42:00,
2013-04-23 02:52:00,37.0,33.0,30.02,North,349,8.0,16.0,86,0.00,,,0.13,,2013-04-23 07:52:00,
2013-04-23 03:02:00,37.0,33.0,30.03,NNW,328,7.0,16.0,86,0.00,,,0.13,,2013-04-23 08:02:00,
2013-04-23 03:11:00,37.0,33.0,30.03,NNW,328,7.0,16.0,86,0.00,,,0.13,,2013-04-23 08:11:00,
2013-04-23 03:21:00,37.0,33.0,30.06,NNW,346,6.0,13.0,86,0.00,,,0.13,,2013-04-23 08:21:00,
2013-04-23 03:31:00,37.0,33.0,30.06,NNW,346,6.0,13.0,86,0.00,,,0.13,,2013-04-23 08:31:00,
2013-04-23 03:42:00,37.0,33.0,30.06,NNW,346,6.0,13.0,86,0.00,,,0.13,,2013-04-23 08:42:00,
2013-04-23 03:52:00,37.0,33.0,30.05,NNW,345,7.0,14.0,85,0.00,,,0.13,,2013-04-23 08:52:00,
2013-04-23 04:01:00,37.0,33.0,30.06,North,351,4.0,17.0,85,0.00,,,0.13,,2013-04-23 09:01:00,
2013-04-23 04:11:00,37.0,33.0,30.06,North,351,4.0,17.0,85,0.00,,,0.13,,2013-04-23 09:11:00,
2013-04-23 04:21:00,36.0,32.0,30.05,NNW,346,9.0,17.0,84,0.00,,,0.13,,2013-04-23 09:21:00,
2013-04-23 04:32:00,36.0,32.0,30.08,NNW,334,6.0,17.0,84,0.00,,,0.13,,2013-04-23 09:32:00,
2013-04-23 04:42:00,36.0,32.0,30.08,NNW,334,6.0,17.0,84,0.00,,,0.13,,2013-04-23 09:42:00,
2013-04-23 04:53:00,36.0,31.0,30.10,NNW,341,6.0,14.0,83,0.00,,,0.13,,2013-04-23 09:53:00,
2013-04-23 05:02:00,36.0,32.0,30.09,NNW,343,7.0,12.0,84,0.00,,,0.13,,2013-04-23 10:02:00,
2013-04-23 05:13:00,36.0,32.0,30.09,NNW,343,7.0,12.0,84,0.00,,,0.13,,2013-04-23 10:13:00,
2013-04-23 05:22:00,36.0,32.0,30.09,NNW,344,6.0,12.0,84,0.00,,,0.13,,2013-04-23 10:22:00,
2013-04-23 05:32:00,36.0,32.0,30.08,NNW,332,6.0,15.0,84,0.00,,,0.13,,2013-04-23 10:32:00,
2013-04-23 05:42:00,36.0,32.0,30.08,NNW,332,6.0,15.0,84,0.00,,,0.13,,2013-04-23 10:42:00,
2013-04-23 05:52:00,36.0,31.0,30.07,North,357,9.0,15.0,83,0.00,,,0.13,,2013-04-23 10:52:00,
2013-04-23 06:03:00,36.0,32.0,30.08,NNW,333,4.0,14.0,84,0.00,,,0.13,,2013-04-23 11:03:00,
2013-04-23 06:12:00,36.0,32.0,30.09,NNW,346,5.0,10.0,84,0.00,,,0.13,,2013-04-23 11:12:00,
2013-04-23 06:21:00,36.0,32.0,30.09,NNW,346,5.0,10.0,84,0.00,,,0.13,,2013-04-23 11:21:00,
2013-04-23 06:32:00,35.0,31.0,30.07,NNW,347,5.0,14.0,84,0.00,,,0.13,,2013-04-23 11:32:00,
2013-04-23 06:42:00,35.0,31.0,30.07,NNW,345,6.0,14.0,84,0.00,,,0.13,,2013-04-23 11:42:00,
2013-04-23 06:53:00,35.0,31.0,30.07,NNW,345,6.0,14.0,84,0.00,,,0.13,,2013-04-23 11:53:00,
2013-04-23 07:02:00,35.0,31.0,30.07,NNW,342,9.0,16.0,84,0.00,,,0.13,,2013-04-23 12:02:00,
2013-04-23 07:12:00,35.0,31.0,30.07,NNW,342,9.0,16.0,84,0.00,,,0.13,,2013-04-23 12:12:00,
2013-04-23 07:22:00,35.0,30.0,30.06,North,356,11.0,18.0,83,0.00,,,0.13,,2013-04-23 12:22:00,
2013-04-23 07:32:00,35.0,30.0,30.06,North,360,9.0,18.0,83,0.00,,,0.13,,2013-04-23 12:32:00,
2013-04-23 07:41:00,35.0,30.0,30.06,North,360,9.0,18.0,83,0.00,,,0.13,,2013-04-23 12:41:00,
2013-04-23 07:51:00,35.0,30.0,30.06,North,351,10.0,15.0,83,0.00,,,0.13,,2013-04-23 12:51:00,
2013-04-23 08:01:00,35.0,30.0,30.06,North,359,4.0,14.0,83,0.00,,,0.13,,2013-04-23 13:01:00,
2013-04-23 08:11:00,35.0,30.0,30.06,North,359,4.0,14.0,83,0.00,,,0.13,,2013-04-23 13:11:00,
2013-04-23 08:21:00,36.0,31.0,30.08,NNW,344,5.0,16.0,83,0.00,,,0.13,,2013-04-23 13:21:00,
2013-04-23 08:32:00,36.0,31.0,30.09,North,350,9.0,14.0,83,0.00,,,0.13,,2013-04-23 13:32:00,
2013-04-23 08:41:00,36.0,31.0,30.09,North,350,9.0,14.0,83,0.00,,,0.13,,2013-04-23 13:41:00,
2013-04-23 08:52:00,35.0,30.0,30.09,North,354,8.0,14.0,82,0.00,,,0.13,,2013-04-23 13:52:00,
2013-04-23 09:01:00,35.0,30.0,30.09,NNW,337,8.0,18.0,83,0.00,,,0.13,,2013-04-23 14:01:00,
2013-04-23 09:11:00,35.0,30.0,30.09,NNW,337,8.0,18.0,83,0.00,,,0.13,,2013-04-23 14:11:00,
2013-04-23 09:22:00,35.0,30.0,30.10,North,351,7.0,16.0,83,0.00,,,0.13,,2013-04-23 14:22:00,
2013-04-23 09:32:00,35.0,30.0,30.09,NNW,344,8.0,17.0,81,0.00,,,0.13,,2013-04-23 14:32:00,
2013-04-23 09:42:00,35.0,30.0,30.09,NNW,344,8.0,17.0,81,0.00,,,0.13,,2013-04-23 14:42:00,
2013-04-23 09:52:00,35.0,30.0,30.09,NNW,342,8.0,18.0,82,0.00,,,0.13,,2013-04-23 14:52:00,
2013-04-23 10:01:00,35.0,30.0,30.09,NNW,342,8.0,18.0,82,0.00,,,0.13,,2013-04-23 15:01:00,
2013-04-23 10:12:00,36.0,31.0,30.08,North,358,4.0,13.0,82,0.00,,,0.13,,2013-04-23 15:12:00,
2013-04-23 10:21:00,36.0,31.0,30.08,North,359,8.0,14.0,81,0.00,,,0.13,,2013-04-23 15:21:00,
2013-04-23 10:32:00,36.0,31.0,30.09,NNW,334,6.0,12.0,82,0.00,,,0.13,,2013-04-23 15:32:00,
2013-04-23 10:42:00,36.0,31.0,30.09,NNW,334,6.0,12.0,82,0.00,,,0.13,,2013-04-23 15:42:00,
2013-04-23 10:53:00,36.0,31.0,30.09,North,4,6.0,13.0,81,0.00,,,0.13,,2013-04-23 15:53:00,
2013-04-23 11:03:00,36.0,31.0,30.09,NNW,347,8.0,14.0,82,0.00,,,0.13,,2013-04-23 16:03:00,
2013-04-23 11:12:00,36.0,31.0,30.09,NNW,347,8.0,14.0,82,0.00,,,0.13,,2013-04-23 16:12:00,
2013-04-23 11:23:00,36.0,31.0,30.10,NNW,345,9.0,15.0,81,0.00,,,0.13,,2013-04-23 16:23:00,
2013-04-23 11:34:00,36.0,31.0,30.09,North,350,10.0,15.0,81,0.00,,,0.13,,2013-04-23 16:34:00,
2013-04-23 11:42:00,36.0,31.0,30.09,North,350,10.0,15.0,81,0.00,,,0.13,,2013-04-23 16:42:00,
2013-04-23 11:52:00,36.0,30.0,30.10,NNW,347,9.0,17.0,80,0.00,,,0.13,,2013-04-23 16:52:00,
2013-04-23 12:02:00,36.0,31.0,30.10,NNW,346,7.0,17.0,81,0.00,,,0.13,,2013-04-23 17:02:00,
2013-04-23 12:11:00,36.0,31.0,30.10,NNW,346,7.0,17.0,81,0.00,,,0.13,,2013-04-23 17:11:00,
2013-04-23 12:22:00,36.0,30.0,30.11,NNW,341,6.0,13.0,80,0.00,,,0.13,,2013-04-23 17:22:00,
2013-04-23 12:32:00,36.0,30.0,30.08,North,358,7.0,15.0,80,0.00,,,0.13,,2013-04-23 17:32:00,
2013-04-23 12:42:00,36.0,30.0,30.08,North,358,7.0,15.0,80,0.00,,,0.13,,2013-04-23 17:42:00,
2013-04-23 12:53:00,36.0,30.0,30.08,North,358,7.0,15.0,80,0.00,,,0.13,,2013-04-23 17:53:00,
2013-04-23 13:02:00,37.0,31.0,30.08,NNW,342,7.0,12.0,79,0.00,,,0.13,,2013-04-23 18:02:00,
2013-04-23 13:12:00,37.0,31.0,30.08,NNW,342,7.0,12.0,79,0.00,,,0.13,,2013-04-23 18:12:00,
2013-04-23 13:22:00,38.0,32.0,30.07,NNW,347,6.0,12.0,79,0.00,,,0.13,,2013-04-23 18:22:00,
2013-04-23 13:32:00,38.0,32.0,30.07,North,354,4.0,12.0,79,0.00,,,0.13,,2013-04-23 18:32:00,
2013-04-23 13:42:00,38.0,32.0,30.07,North,354,4.0,12.0,79,0.00,,,0.13,,2013-04-23 18:42:00,
2013-04-23 13:52:00,38.0,32.0,30.07,North,357,10.0,17.0,78,0.00,,,0.13,,2013-04-23 18:52:00,
2013-04-23 14:02:00,38.0,32.0,30.07,NNW,340,5.0,15.0,78,0.00,,,0.13,,2013-04-23 19:02:00,
2013-04-23 14:11:00,38.0,32.0,30.07,NNW,340,5.0,15.0,78,0.00,,,0.13,,2013-04-23 19:11:00,
2013-04-23 14:21:00,38.0,32.0,30.07,North,356,6.0,16.0,78,0.00,,,0.13,,2013-04-23 19:21:00,
2013-04-23 14:32:00,38.0,31.0,30.06,NNW,343,5.0,14.0,76,0.00,,,0.13,,2013-04-23 19:32:00,
2013-04-23 14:42:00,38.0,31.0,30.06,NNW,343,5.0,14.0,76,0.00,,,0.13,,2013-04-23 19:42:00,
2013-04-23 14:52:00,39.0,32.0,30.07,NNW,347,6.0,14.0,77,0.00,,,0.13,,2013-04-23 19:52:00,
2013-04-23 15:01:00,39.0,32.0,30.07,NNW,346,9.0,15.0,77,0.00,,,0.13,,2013-04-23 20:01:00,
2013-04-23 15:11:00,39.0,32.0,30.07,NNW,346,9.0,15.0,77,0.00,,,0.13,,2013-04-23 20:11:00,
2013-04-23 15:22:00,39.0,32.0,30.06,North,356,8.0,15.0,77,0.00,,,0.13,,2013-04-23 20:22:00,
2013-04-23 15:32:00,39.0,31.0,30.06,North,356,10.0,16.0,74,0.00,,,0.13,,2013-04-23 20:32:00,
2013-04-23 15:42:00,39.0,31.0,30.06,North,356,10.0,16.0,74,0.00,,,0.13,,2013-04-23 20:42:00,
2013-04-23 15:52:00,40.0,32.0,30.06,North,357,5.0,14.0,74,0.00,,,0.13,,2013-04-23 20:52:00,
2013-04-23 16:01:00,40.0,32.0,30.05,NNW,336,5.0,15.0,73,0.00,,,0.13,,2013-04-23 21:01:00,
2013-04-23 16:12:00,40.0,32.0,30.05,NNW,336,5.0,15.0,73,0.00,,,0.13,,2013-04-23 21:12:00,
2013-04-23 16:21:00,41.0,32.0,30.04,North,6,8.0,14.0,71,0.00,,,0.13,,2013-04-23 21:21:00,
2013-04-23 16:33:00,41.0,32.0,30.04,North,355,5.0,17.0,71,0.00,,,0.13,,2013-04-23 21:33:00,
2013-04-23 16:43:00,41.0,32.0,30.04,North,355,5.0,17.0,71,0.00,,,0.13,,2013-04-23 21:43:00,
2013-04-23 16:52:00,42.0,33.0,30.04,North,351,6.0,14.0,70,0.00,,,0.13,,2013-04-23 21:52:00,
2013-04-23 17:03:00,42.0,33.0,30.04,North,351,6.0,14.0,70,0.00,,,0.13,,2013-04-23 22:03:00,
2013-04-23 17:12:00,42.0,33.0,30.04,North,351,6.0,14.0,70,0.00,,,0.13,,2013-04-23 22:12:00,
2013-04-23 17:22:00,42.0,32.0,30.03,NNW,344,8.0,14.0,67,0.00,,,0.13,,2013-04-23 22:22:00,
2013-04-23 17:33:00,42.0,32.0,30.03,NNW,347,8.0,14.0,67,0.00,,,0.13,,2013-04-23 22:33:00,
2013-04-23 17:42:00,42.0,32.0,30.03,NNW,347,8.0,14.0,67,0.00,,,0.13,,2013-04-23 22:42:00,
2013-04-23 17:52:00,42.0,31.0,30.03,NNW,340,7.0,15.0,66,0.00,,,0.13,,2013-04-23 22:52:00,
2013-04-23 18:02:00,42.0,31.0,30.03,North,356,6.0,13.0,65,0.00,,,0.13,,2013-04-23 23:02:00,
2013-04-23 18:12:00,42.0,31.0,30.03,North,356,6.0,13.0,65,0.00,,,0.13,,2013-04-23 23:12:00,
2013-04-23 18:22:00,42.0,31.0,30.04,NNW,338,6.0,15.0,66,0.00,,,0.13,,2013-04-23 23:22:00,
2013-04-23 18:32:00,42.0,30.0,30.04,North,353,10.0,15.0,63,0.00,,,0.13,,2013-04-23 23:32:00,
2013-04-23 18:42:00,42.0,31.0,30.04,NNW,334,6.0,14.0,64,0.00,,,0.12,,2013-04-23 23:42:00,
2013-04-23 18:52:00,42.0,31.0,30.04,NNW,334,6.0,14.0,64,0.00,,,0.12,,2013-04-23 23:52:00,
2013-04-23 19:01:00,42.0,30.0,30.04,NNW,328,8.0,14.0,63,0.00,,,0.12,,2013-04-24 00:01:00,
2013-04-23 19:11:00,42.0,30.0,30.04,NNW,328,8.0,14.0,63,0.00,,,0.12,,2013-04-24 00:11:00,
2013-04-23 19:21:00,41.0,29.0,30.04,NNW,335,5.0,12.0,63,0.00,,,0.11,,2013-04-24 00:21:00,
2013-04-23 19:32:00,41.0,29.0,30.04,North,352,6.0,13.0,63,0.00,,,0.11,,2013-04-24 00:32:00,
2013-04-23 19:41:00,41.0,29.0,30.04,North,352,6.0,13.0,63,0.00,,,0.11,,2013-04-24 00:41:00,
2013-04-23 19:52:00,40.0,29.0,30.04,NNW,348,5.0,13.0,64,0.00,,,0.11,,2013-04-24 00:52:00,
2013-04-23 20:01:00,40.0,29.0,30.04,NNW,342,4.0,10.0,65,0.00,,,0.11,,2013-04-24 01:01:00,
2013-04-23 20:11:00,40.0,29.0,30.04,NNW,342,4.0,10.0,65,0.00,,,0.11,,2013-04-24 01:11:00,
2013-04-23 20:21:00,40.0,29.0,30.06,NNW,331,5.0,11.0,64,0.00,,,0.08,,2013-04-24 01:21:00,
2013-04-23 20:32:00,40.0,28.0,30.06,NNW,333,7.0,11.0,63,0.00,,,0.08,,2013-04-24 01:32:00,
2013-04-23 20:42:00,40.0,28.0,30.06,NNW,333,7.0,11.0,63,0.00,,,0.08,,2013-04-24 01:42:00,
2013-04-23 20:52:00,39.0,27.0,30.06,NNW,344,7.0,13.0,63,0.00,,,0.08,,2013-04-24 01:52:00,
2013-04-23 21:02:00,39.0,29.0,30.07,North,357,5.0,15.0,66,0.00,,,0.07,,2013-04-24 02:02:00,
2013-04-23 21:16:00,39.0,29.0,30.07,North,357,5.0,15.0,66,0.00,,,0.07,,2013-04-24 02:16:00,
2013-04-23 21:38:00,38.0,28.0,30.07,North,355,4.0,10.0,68,0.00,,,0.05,,2013-04-24 02:38:00,
2013-04-23 21:46:00,38.0,28.0,30.07,North,355,4.0,10.0,68,0.00,,,0.05,,2013-04-24 02:46:00,
2013-04-23 22:15:00,37.0,28.0,30.09,North,354,3.0,8.0,69,0.00,,,0.01,,2013-04-24 03:15:00,
2013-04-23 22:28:00,37.0,28.0,30.10,NW,325,2.0,9.0,70,0.00,,,0.01,,2013-04-24 03:28:00,
2013-04-23 22:38:00,36.0,28.0,30.11,NNW,332,3.0,8.0,71,0.00,,,0.01,,2013-04-24 03:38:00,
2013-04-23 22:48:00,36.0,28.0,30.11,NNW,332,3.0,8.0,71,0.00,,,0.01,,2013-04-24 03:48:00,
2013-04-23 23:01:00,36.0,28.0,30.11,NNW,343,2.0,9.0,71,0.00,,,0.01,,2013-04-24 04:01:00,
2013-04-23 23:12:00,36.0,27.0,30.10,NW,325,3.0,8.0,70,0.00,,,0.00,,2013-04-24 04:12:00,
2013-04-23 23:23:00,35.0,27.0,30.10,North,355,2.0,8.0,71,0.00,,,0.00,,2013-04-24 04:23:00,
2013-04-23 23:33:00,35.0,27.0,30.10,NW,304,2.0,7.0,71,0.00,,,0.00,,2013-04-24 04:33:00,
2013-04-23 23:43:00,35.0,27.0,30.10,NW,304,2.0,7.0,71,0.00,,,0.00,,2013-04-24 04:43:00,
2013-04-23 23:53:00,35.0,27.0,30.10,NW,319,2.0,6.0,71,0.00,,,0.00,,2013-04-24 04:53:00,